Marysville, CA

2:26 PM PDT on September 16, 2019 (GMT -0700)
Yuba County

Weather History for KMYV - June, 2019

Change the Weather History Date:

Wednesday, June 12, 2019

  Actual Average Record
Temperature  
Mean Temperature 86 °F -  
Max Temperature 102 °F 88 °F 108 °F (2015)
Min Temperature 70 °F 58 °F 45 °F (1952)
Cooling Degree Days 21    
Growing Degree Days 36 (Base 50)    
Moisture  
Dew Point 58 °F    
Average Humidity 44    
Maximum Humidity 74    
Minimum Humidity 13    
Precipitation  
Precipitation 0.00 in - - ()
Sea Level Pressure  
Sea Level Pressure 29.86 in    
Wind  
Wind Speed 3 mph (ENE)    
Max Wind Speed 10 mph    
Max Gust Speed -    
Visibility 10 miles    
Events      
Averages and records for this station are not official NWS values.
T = Trace of Precipitation, MM = Missing Value Source: NWS Daily Summary

Daily Weather History Graph

Daily Weather History Graph

Search for Another Location

Airport or City:

Astronomy

Jun. 12, 2019 Rise Set
Actual Time 5:39 AM PDT 8:32 PM PDT
Civil Twilight 5:07 AM PDT 9:04 PM PDT
Nautical Twilight 4:27 AM PDT 9:45 PM PDT
Astronomical Twilight 3:40 AM PDT 10:31 PM PDT
Moon 3:48 PM PDT (6/12) 2:54 AM PDT (6/12)
Length of Visible Light 15h 57m
Length of Day
14h 52m
Waxing Gibbous, 77% of the Moon is Illuminated
Jun 12
Waxing Gibbous
Jun 17
Full
Jun 25
Last Quarter
Jul 2
New
Jul 9
First Quarter

Hourly Weather History & Observations

Time (PDT) Temp. Heat Index Dew Point Humidity Pressure Visibility Wind Dir Wind Speed Gust Speed Precip Events Conditions
12:53 AM 75.9 °F - 60.1 °F 58% 29.91 in 10.0 mi Calm Calm - N/A   Unknown
1:53 AM 75.0 °F - 60.1 °F 60% 29.91 in 10.0 mi Calm Calm - N/A   Unknown
2:53 AM 77.0 °F - 57.0 °F 50% 29.89 in 10.0 mi ENE 6.9 mph - N/A   Unknown
3:53 AM 73.9 °F - 57.0 °F 55% 29.89 in 10.0 mi Calm Calm - N/A   Unknown
4:53 AM 70.0 °F - 60.1 °F 71% 29.89 in 10.0 mi West 5.8 mph - N/A   Clear
5:53 AM 72.0 °F - 57.9 °F 61% 29.88 in 10.0 mi North 4.6 mph - N/A   Unknown
6:53 AM 73.9 °F - 60.1 °F 62% 29.89 in 10.0 mi North 6.9 mph - N/A   Unknown
7:53 AM 75.0 °F - 64.0 °F 69% 29.91 in 10.0 mi Calm Calm - N/A   Clear
8:53 AM 79.0 °F - 62.1 °F 56% 29.91 in 10.0 mi North 5.8 mph - N/A   Unknown
9:53 AM 81.0 °F 82.2 °F 63.0 °F 54% 29.91 in 10.0 mi NW 4.6 mph - N/A   Unknown
10:53 AM 87.1 °F 85.1 °F 54.0 °F 32% 29.91 in 10.0 mi NE 4.6 mph - N/A   Unknown
11:53 AM 91.9 °F 89.5 °F 53.1 °F 27% 29.90 in 10.0 mi Variable 3.5 mph - N/A   Clear
12:53 PM 96.1 °F 94.1 °F 55.0 °F 25% 29.88 in 10.0 mi Variable 6.9 mph - N/A   Clear
1:53 PM 98.1 °F 96.4 °F 55.0 °F 24% 29.87 in 10.0 mi Calm Calm - N/A   Clear
2:53 PM 98.1 °F 95.7 °F 53.1 °F 22% 29.85 in 10.0 mi Variable 4.6 mph - N/A   Clear
3:53 PM 100.9 °F 99.6 °F 55.0 °F 22% 29.83 in 10.0 mi Variable 3.5 mph - N/A   Clear
4:53 PM 102.0 °F - 46.0 °F 15% 29.81 in 10.0 mi Variable 5.8 mph - N/A   Clear
5:53 PM 102.0 °F - 42.1 °F 13% 29.79 in 10.0 mi Variable 3.5 mph - N/A   Clear
6:53 PM 99.0 °F 97.3 °F 55.0 °F 23% 29.78 in 10.0 mi SSW 6.9 mph - N/A   Clear
7:53 PM 93.9 °F 91.7 °F 54.0 °F 26% 29.78 in 10.0 mi SSW 3.5 mph - N/A   Clear
8:53 PM 84.9 °F 84.4 °F 59.0 °F 41% 29.78 in 10.0 mi Calm Calm - N/A   Clear
9:53 PM 82.0 °F 83.8 °F 64.9 °F 56% 29.79 in 10.0 mi South 4.6 mph - N/A   Unknown
10:53 PM 78.1 °F - 69.1 °F 74% 29.79 in 10.0 mi SSE 5.8 mph - N/A   Clear
11:53 PM 75.9 °F - 66.0 °F 71% 29.81 in 10.0 mi SSE 10.4 mph - N/A   Clear